Regional Weather Roundup
Issued by NWS Albany, NY

Home | Current Version | Previous Version | Text Only | Print | Product List | Glossary On
Versions: 1 2 3 4 5 6 7 8 9 10 11 12 13 14 15 16 17 18 19 20 21 22 23 24 25 26 27 28 29 30 31 32 33 34 35 36 37 38 39 40 41 42 43 44 45 46 47 48 49 50
000
ASUS41 KALY 010710
RWRALY

NEW YORK STATE HOURLY WEATHER ROUNDUP
NATIONAL WEATHER SERVICE ALBANY NY
300 AM EDT SAT AUG 01 2015

NOTE: "FAIR" INDICATES FEW OR NO CLOUDS BELOW 12,000 FEET WITH NO
SIGNIFICANT WEATHER AND/OR NO OBSTRUCTIONS TO VISIBILITY.

NYZ032-033-038>043-046>054-057>066-NYZ062>081-010800-
EAST


CITY           SKY/WX    TMP DP  RH WIND       PRES   REMARKS
ALBANY         PTCLDY    67  58  72 CALM      29.76S
GLENS FALLS    PTCLDY    61  58  90 CALM      29.75S
POUGHKEEPSIE   CLEAR     64  60  87 CALM      29.78F
MONTGOMERY     CLEAR     66  61  84 SW5       29.80S
WHITE PLAINS   MOCLDY    72  60  66 CALM      29.80F
ISLIP          CLEAR     73  68  84 SW6       29.78F
NEW YORK CITY  PTCLDY    80  58  46 SW9       29.79F
CENTRAL PARK   PTCLDY    79  57  46 VRB3      29.83F
$$

NYZ005>009-017-018-044>046-055-056-010800-
CENTRAL


CITY           SKY/WX    TMP DP  RH WIND       PRES   REMARKS
FULTON         LGT RAIN  66  63  90 W6        29.78R
SYRACUSE       MOCLDY    67  64  90 N3        29.77S
ROME           CLOUDY    63  62  97 CALM      29.79F
ELMIRA         LGT RAIN  66  64  93 SW6       29.80S
BINGHAMTON     MOCLDY    67  59  75 SW6       29.82F
MONTICELLO     CLEAR     63  59  88 SW6       29.85S
$$

NYZ026>034-041>043-010800-
NORTH


CITY           SKY/WX    TMP DP  RH WIND       PRES   REMARKS
WATERTOWN      RAIN      65  62  90 SW8       29.76R FOG
FORT DRUM      NOT AVBL
MASSENA        PTCLDY    64  59  83 SW5       29.70F
SARANAC LAKE   PTCLDY    60  58  92 SW7       29.75F
PLATTSBURGH    CLOUDY    69  57  65 SW3       29.70F
$$

NYZ001>004-010>016-019>021-010800-
WEST


CITY           SKY/WX    TMP DP  RH WIND       PRES   REMARKS
NIAGARA FALLS  MOCLDY    63  61  93 W5        29.79S
BUFFALO        PTCLDY    66  57  72 SW5       29.80S
DUNKIRK        CLEAR     68  62  81 CALM      29.83R
JAMESTOWN      PTCLDY    63  57  82 W6        29.87S
WELLSVILLE     PTCLDY    64  58  80 SW10      29.88S
ROCHESTER      PTCLDY    65  61  87 W6        29.79S
PENN YAN       PTCLDY    65  59  81 CALM      29.80S
$$

             KEY
       WCI = WIND CHILL INDEX
       VSB = VISIBILITY
       HX  = HEAT INDEX
$$



USA.gov is the U.S. government's official web portal to all federal, state and local government web resources and services.